Wind_Speed
7 6 6 6 5 4 4 4 4 4 4 5 6 6 7 8 9 10 11 12 13 13 14 15 16 16 16 14 11 8 6 5 5 5 6 6 6 6 7 8 9 9 9
6 6 6 5 5 4 4 4 4 4 4 5 5 6 6 7 7 8 9 11 12 13 13 14 15 15 15 15 13 10 7 5 4 4 4 4 5 5 5 6 7 7 8
5 5 5 5 4 4 4 4 4 4 4 4 5 5 6 7 7 8 9 10 11 12 13 13 14 14 14 14 13 12 9 7 4 3 3 3 3 4 4 5 5 6 7
6 5 5 5 5 4 4 4 4 4 5 5 6 6 7 7 8 8 9 10 11 12 12 13 13 14 14 14 13 12 10 8 6 4 2 2 2 3 4 4 4 5 6
5 6 6 6 6 6 6 6 6 6 7 8 8 9 10 10 11 11 11 11 12 12 13 13 13 14 14 14 13 12 11 9 7 5 2 0 1 2 3 4 4 4 5
6 6 7 7 7 8 9 9 9 10 10 11 11 12 13 13 14 14 14 14 14 14 14 14 14 15 15 14 13 13 11 10 8 6 4 2 2 2 3 4 4 5 5
8 8 9 9 10 11 12 12 12 13 13 13 14 14 14 15 16 16 17 17 18 17 17 17 16 16 16 16 15 14 13 11 10 8 6 5 3 3 4 4 4 5 5
10 10 11 12 12 13 13 14 15 14 15 16 16 16 16 17 17 17 18 19 19 20 20 19 19 18 18 17 17 16 14 13 12 11 9 7 6 5 5 5 5 5 5
11 12 12 13 13 14 14 15 16 16 17 17 17 17 18 18 18 19 19 20 20 21 21 21 21 21 21 20 19 19 17 16 15 14 12 11 10 9 7 7 7 7 6
13 14 15 15 15 16 17 18 18 18 18 19 19 19 19 20 20 20 21 21 21 22 23 23 23 23 23 23 23 21 20 19 18 17 16 14 13 13 11 10 9 8 8
16 17 17 17 18 19 20 21 21 21 21 21 21 22 22 22 22 23 23 23 23 23 23 24 24 25 25 25 25 25 24 22 21 19 19 18 17 16 15 14 12 11 10
18 19 19 20 21 22 23 23 23 23 23 24 24 25 25 25 25 26 26 26 25 25 25 24 24 25 25 26 27 27 27 26 24 22 21 21 21 20 19 18 16 15 14
21 22 21 23 24 26 26 26 25 25 26 26 26 27 28 28 28 28 28 28 28 28 27 27 26 25 26 26 26 27 29 29 27 26 24 23 23 23 22 21 20 19 18
24 24 25 26 27 28 28 27 27 27 27 29 30 30 31 32 31 31 31 31 31 31 30 29 28 28 27 27 27 26 27 30 30 29 28 26 26 25 25 25 24 23 21
27 27 28 28 28 28 29 28 28 29 30 31 32 32 33 33 32 32 32 32 32 32 32 31 31 30 30 29 28 27 28 29 31 32 31 29 28 28 28 27 27 26 24
28 28 28 28 28 28 29 30 31 32 32 33 34 34 34 33 32 32 33 32 33 33 33 32 31 31 31 31 31 29 29 30 30 32 33 32 31 30 29 29 29 28 26
27 27 27 27 28 29 30 32 33 34 34 35 35 35 34 34 33 33 33 33 33 33 34 33 33 32 32 33 32 30 30 31 31 33 34 35 33 31 30 30 29 29 28
24 25 25 26 28 29 31 33 34 34 35 36 36 36 35 35 34 34 34 33 34 34 34 34 34 32 32 32 32 31 30 32 32 33 35 35 33 32 31 30 30 29 28
23 24 25 27 28 30 32 33 34 36 36 37 37 36 35 35 34 34 34 34 34 34 34 34 34 33 32 32 31 31 31 32 33 34 34 35 35 34 33 30 31 29 29
23 25 27 29 30 32 33 34 35 36 37 37 36 36 35 35 35 35 35 35 35 35 35 34 34 34 33 32 32 32 32 32 32 33 33 35 36 36 35 33 33 31 31
24 26 28 30 31 33 34 35 35 36 36 37 37 36 36 36 36 36 36 36 36 37 36 36 35 34 33 33 33 32 33 32 32 32 33 35 35 35 35 35 34 33 33
23 25 27 29 31 32 33 34 34 34 34 35 36 36 36 36 37 36 36 37 37 37 38 38 37 36 35 33 32 30 31 31 32 32 32 34 35 37 36 35 36 34 36
21 23 25 27 28 29 30 31 32 33 33 34 34 35 35 36 36 35 35 35 35 35 36 36 36 36 35 34 32 31 30 30 31 32 33 34 35 36 36 36 36 34 35
21 22 24 25 26 28 29 30 31 32 33 34 34 34 34 34 34 34 33 32 32 33 33 34 34 34 34 33 33 32 31 30 30 31 32 33 34 35 37 36 35 35 34
22 23 24 25 26 28 29 29 30 31 32 33 33 33 34 34 34 34 32 31 31 31 31 31 31 32 32 32 32 31 31 30 30 30 31 32 34 35 36 36 36 36 36
23 24 25 27 28 29 30 31 31 32 33 33 34 34 34 35 35 35 34 32 31 31 31 31 31 31 32 32 32 32 32 31 30 30 31 32 34 34 36 37 36 36 37
Wind_Direction
354 2 359 350 340 333 330 327 328 333 345 355 1 6 9 8 4 1 359 357 357 357 358 1 3 6 9 12 14 15 14 21 40 55 69 86 102 110 110 109 110 108 105
357 5 356 346 335 325 317 315 318 323 334 344 350 355 358 357 354 349 346 346 347 348 349 351 353 356 359 4 8 10 12 12 26 45 62 81 100 116 122 120 117 113 107
2 6 355 345 336 325 316 312 312 318 328 335 339 343 344 343 340 337 332 331 332 333 336 339 341 344 347 352 357 1 6 8 8 26 49 71 96 118 132 137 134 124 113
1 352 340 334 328 321 311 305 305 311 318 320 322 324 325 324 323 322 320 318 318 319 321 324 326 329 333 338 344 349 353 359 358 3 24 70 106 133 147 155 156 144 128
341 332 325 322 319 316 310 306 303 303 306 308 309 309 309 309 308 307 306 305 305 306 307 308 310 313 317 322 327 333 338 342 344 348 342 326 144 158 163 167 170 166 152
311 309 309 306 304 302 299 297 297 296 297 298 298 299 299 299 299 298 298 296 295 294 294 295 296 298 301 306 309 313 317 324 325 324 323 291 229 193 185 178 178 179 173
293 291 292 290 290 292 292 290 291 294 294 294 294 294 295 296 297 295 294 290 287 285 285 285 284 285 287 290 292 294 296 299 305 303 300 291 262 228 212 200 190 187 184
294 293 291 288 287 289 290 291 292 291 292 294 293 293 293 293 295 295 295 291 285 281 280 279 277 276 276 277 278 277 280 280 282 287 283 276 267 253 238 227 213 202 194
297 295 292 290 290 292 292 293 294 293 293 297 296 294 294 293 294 295 297 294 288 283 279 276 272 270 268 268 269 267 265 267 267 270 271 267 264 258 251 245 234 221 211
290 289 289 292 293 294 294 294 295 296 297 298 298 297 296 296 295 295 296 295 292 287 281 276 271 266 265 262 261 261 257 257 256 256 261 262 260 258 253 250 246 237 227
284 284 284 288 290 292 293 294 296 296 297 299 299 297 296 296 296 295 295 294 292 289 284 279 272 267 262 260 258 256 253 250 249 247 249 254 255 255 253 250 249 246 239
280 278 280 284 286 287 288 290 292 292 294 296 295 295 294 294 296 294 293 291 291 289 287 282 277 272 266 261 259 255 250 247 247 244 242 244 248 250 250 249 248 249 247
279 276 277 279 281 283 285 286 287 289 291 292 293 295 294 294 294 292 291 290 289 287 287 284 280 277 271 266 262 257 249 246 245 244 241 239 242 245 246 247 247 248 248
283 283 282 281 280 279 280 281 282 285 287 289 291 292 293 293 293 291 289 286 284 283 282 282 282 279 276 269 265 261 253 249 245 243 241 239 239 241 243 244 244 245 247
287 288 286 286 284 282 281 283 285 287 289 288 288 288 289 289 289 287 287 284 281 280 278 278 278 277 276 273 269 263 255 251 246 243 241 239 238 238 240 240 241 242 242
287 287 287 287 286 286 287 288 289 290 290 290 291 290 290 289 288 287 285 283 280 279 277 276 276 275 277 275 272 267 257 251 250 247 243 240 238 237 238 238 238 239 240
287 287 287 287 287 287 288 288 289 290 291 292 291 291 290 289 289 288 286 283 280 278 277 277 276 275 276 275 272 267 261 254 249 248 243 239 237 236 235 236 236 236 237
285 286 285 285 285 286 287 288 289 290 291 291 291 291 290 289 288 286 284 282 279 277 277 278 277 276 277 274 271 265 262 257 251 248 243 238 236 234 233 233 233 232 232
286 286 286 286 286 287 288 288 288 289 289 290 290 290 289 288 287 286 283 280 278 276 275 276 277 276 276 273 270 266 262 258 253 249 244 238 235 233 232 231 231 229 228
290 290 289 289 289 289 290 290 290 290 290 290 290 289 288 287 286 284 282 280 278 276 275 275 275 276 275 273 271 267 260 256 253 248 243 239 236 232 230 229 231 229 228
292 292 291 291 291 291 291 291 291 291 291 291 291 289 288 287 286 284 283 281 279 276 275 275 274 274 275 273 270 265 258 254 252 247 242 237 234 230 231 231 232 230 229
293 293 292 292 292 292 293 293 292 292 291 290 289 289 288 286 284 283 281 280 278 276 274 273 273 272 272 272 268 265 258 252 250 247 243 238 235 232 231 231 231 231 228
299 298 298 297 296 296 296 296 295 294 293 292 291 290 289 287 285 284 282 279 277 274 272 271 270 268 268 267 265 261 258 251 250 248 244 240 235 230 230 230 229 228 227
310 307 305 303 302 301 300 299 298 297 297 296 296 295 294 292 290 289 286 282 278 275 272 269 267 265 265 264 261 258 256 253 251 246 242 239 234 230 229 228 227 228 226
316 313 310 308 307 305 304 303 302 301 300 299 298 297 296 295 294 292 290 286 281 276 272 269 266 264 262 261 258 256 253 251 250 246 242 240 234 231 228 225 226 227 225
322 319 316 314 312 309 307 306 305 305 304 303 302 300 299 297 295 293 291 287 282 277 273 269 265 262 260 258 256 253 252 250 248 244 241 239 235 232 228 225 224 223 222
Height
5922 5921 5920 5920 5919 5919 5918 5918 5917 5916 5916 5915 5915 5914 5914 5913 5913 5912 5912 5911 5910 5909 5907 5906 5905 5904 5902 5901 5899 5898 5898 5897 5897 5896 5896 5895 5895 5895 5895 5895 5894 5894 5894
5921 5920 5920 5919 5919 5918 5918 5917 5917 5916 5915 5914 5914 5913 5913 5912 5912 5911 5911 5910 5909 5908 5907 5906 5905 5904 5903 5901 5900 5899 5898 5898 5897 5897 5896 5896 5896 5896 5896 5896 5896 5896 5896
5920 5920 5920 5919 5919 5918 5917 5917 5916 5915 5915 5914 5913 5912 5912 5911 5911 5910 5909 5909 5908 5907 5906 5905 5904 5903 5903 5902 5900 5899 5899 5898 5897 5897 5897 5896 5896 5896 5896 5896 5897 5897 5896
5920 5920 5920 5919 5918 5918 5917 5916 5916 5915 5914 5913 5912 5912 5911 5910 5909 5909 5908 5907 5906 5906 5905 5904 5903 5902 5902 5901 5900 5899 5899 5898 5898 5897 5897 5897 5897 5896 5896 5897 5897 5897 5898
5919 5919 5919 5919 5918 5917 5917 5916 5915 5914 5913 5912 5911 5910 5909 5908 5908 5907 5906 5905 5904 5904 5903 5902 5901 5901 5900 5900 5899 5899 5898 5898 5897 5897 5897 5897 5897 5897 5897 5897 5898 5898 5898
5919 5918 5918 5917 5917 5916 5915 5914 5913 5912 5911 5910 5909 5908 5907 5906 5905 5904 5903 5903 5902 5901 5900 5900 5899 5898 5898 5898 5898 5897 5897 5897 5897 5897 5897 5897 5897 5897 5897 5898 5898 5898 5899
5917 5917 5916 5915 5915 5914 5912 5911 5910 5909 5908 5907 5906 5905 5904 5903 5902 5901 5900 5899 5898 5898 5897 5896 5896 5895 5895 5895 5895 5895 5895 5896 5896 5896 5896 5897 5897 5897 5897 5898 5898 5898 5899
5915 5914 5913 5913 5912 5911 5909 5908 5907 5906 5905 5904 5903 5902 5901 5899 5898 5897 5896 5895 5894 5893 5893 5892 5892 5892 5891 5891 5891 5892 5893 5893 5894 5894 5895 5896 5896 5896 5897 5897 5898 5898 5898
5913 5912 5911 5910 5909 5907 5906 5905 5904 5903 5901 5900 5899 5898 5896 5895 5894 5893 5892 5891 5889 5889 5888 5887 5887 5887 5887 5886 5887 5887 5889 5890 5891 5891 5892 5893 5894 5895 5895 5896 5897 5898 5898
5910 5909 5908 5907 5905 5904 5902 5901 5900 5899 5897 5896 5895 5893 5892 5891 5890 5888 5887 5886 5884 5883 5882 5882 5881 5881 5881 5881 5881 5882 5883 5885 5887 5888 5889 5890 5891 5892 5893 5894 5895 5896 5897
5907 5905 5903 5903 5901 5899 5898 5896 5895 5894 5893 5892 5890 5889 5887 5886 5885 5883 5882 5880 5879 5877 5876 5875 5875 5875 5875 5875 5875 5876 5877 5878 5881 5883 5885 5886 5887 5889 5890 5891 5893 5894 5895
5902 5899 5898 5898 5896 5895 5893 5892 5891 5889 5888 5887 5885 5884 5882 5880 5879 5877 5876 5874 5873 5871 5870 5869 5868 5868 5868 5868 5868 5869 5870 5871 5874 5877 5880 5881 5882 5884 5886 5888 5889 5891 5892
5896 5894 5893 5893 5891 5890 5888 5886 5885 5884 5883 5881 5879 5878 5876 5874 5873 5871 5870 5868 5866 5865 5864 5863 5862 5861 5861 5860 5861 5862 5863 5865 5867 5870 5873 5875 5877 5879 5881 5883 5885 5887 5888
5889 5889 5888 5887 5886 5884 5882 5880 5878 5877 5877 5876 5874 5872 5870 5868 5866 5865 5863 5861 5860 5858 5857 5856 5855 5854 5853 5853 5853 5854 5856 5858 5860 5862 5865 5868 5871 5872 5875 5877 5879 5881 5884
5883 5883 5882 5881 5879 5877 5875 5873 5871 5871 5870 5869 5867 5866 5864 5862 5860 5858 5856 5854 5852 5850 5850 5849 5848 5847 5846 5845 5845 5846 5848 5850 5852 5855 5858 5861 5864 5866 5868 5870 5873 5876 5878
5879 5877 5876 5874 5872 5870 5868 5866 5865 5864 5863 5861 5860 5858 5856 5854 5852 5850 5848 5846 5844 5842 5841 5841 5841 5839 5838 5837 5837 5838 5840 5841 5844 5847 5850 5853 5856 5858 5861 5863 5866 5870 5873
5874 5873 5871 5869 5866 5864 5862 5860 5858 5856 5855 5853 5851 5849 5847 5846 5844 5842 5840 5838 5836 5834 5833 5832 5832 5832 5831 5830 5829 5830 5832 5833 5836 5839 5841 5844 5847 5850 5853 5857 5860 5863 5867
5869 5868 5866 5863 5861 5858 5856 5854 5852 5849 5847 5845 5843 5841 5839 5837 5835 5834 5832 5830 5828 5826 5825 5824 5823 5823 5822 5821 5821 5822 5823 5825 5827 5829 5832 5836 5839 5842 5846 5850 5853 5857 5860
5864 5862 5860 5857 5855 5852 5850 5847 5845 5842 5840 5837 5835 5833 5831 5829 5827 5825 5823 5822 5820 5819 5817 5816 5815 5815 5814 5813 5813 5813 5815 5817 5819 5821 5824 5827 5831 5835 5839 5842 5846 5850 5854
5859 5857 5854 5851 5849 5846 5843 5840 5837 5835 5832 5829 5827 5825 5823 5821 5818 5817 5815 5813 5811 5810 5809 5808 5807 5806 5806 5805 5805 5804 5806 5809 5811 5813 5816 5819 5823 5827 5831 5835 5839 5843 5847
5854 5851 5849 5846 5842 5839 5836 5833 5830 5827 5824 5821 5818 5816 5814 5812 5809 5807 5805 5804 5802 5801 5800 5799 5799 5798 5798 5797 5796 5796 5797 5800 5802 5805 5808 5811 5815 5819 5823 5828 5832 5836 5840
5849 5846 5843 5840 5836 5832 5829 5825 5822 5819 5816 5813 5810 5807 5804 5802 5800 5798 5796 5794 5793 5792 5791 5790 5789 5789 5789 5788 5788 5789 5790 5793 5794 5797 5800 5803 5807 5811 5816 5820 5824 5828 5832
5845 5841 5838 5834 5830 5826 5822 5818 5814 5811 5807 5804 5801 5798 5795 5792 5789 5787 5786 5784 5783 5781 5781 5780 5780 5780 5780 5780 5780 5781 5782 5785 5786 5789 5791 5795 5798 5802 5807 5812 5816 5820 5824
5839 5836 5832 5828 5823 5819 5815 5811 5807 5803 5799 5795 5792 5788 5785 5782 5779 5777 5775 5774 5772 5771 5770 5770 5770 5770 5770 5771 5771 5772 5774 5776 5779 5780 5784 5787 5790 5794 5799 5803 5808 5812 5816
5834 5830 5826 5822 5817 5813 5808 5804 5799 5795 5791 5787 5783 5780 5776 5772 5769 5767 5765 5764 5762 5761 5760 5760 5760 5760 5761 5761 5763 5764 5766 5768 5770 5773 5776 5778 5782 5785 5790 5795 5800 5804 5809
5829 5824 5820 5816 5811 5806 5801 5796 5792 5787 5783 5779 5775 5771 5767 5763 5760 5757 5756 5754 5752 5751 5750 5750 5750 5751 5751 5752 5753 5755 5757 5759 5761 5764 5767 5770 5773 5777 5782 5786 5791 5796 5801